[[{"header":{"parameterUnit":"m.s-1","parameterCategory":1,"la1":30.2991,"la2":30.254,"lo1":-89.0895,"lo2":-89.0444,"dy":0.0017,"dx":0.0017,"nx":28,"ny":28,"refTime":"2023-08-09T21:00:00:Z","depth":0,"parameterNumber":2,"parameterNumberName":"U-component_of_WINDS"},"data":[0,0,0,0,0,0,0,0,0,0,0,0,0,0,0,0,0,0,0,0,0,0,0,0,0,0,0,0,0,0,0,0,0,0,0,0,0,0,0,0,0,0,0,0,0,0,0,0,0,0,0,0,0,0,0,0,0,0,4.6003,4.6005,0,4.6117,4.6119,4.612,4.6095,4.6093,4.6091,4.6089,4.621,4.6215,4.622,0,0,0,0,0,0,0,0,0,0,0,0,0,4.5769,4.5773,4.6003,4.6005,4.6006,4.6117,4.6119,4.612,4.6096,4.6093,4.6091,4.6088,4.6208,4.6214,4.6221,0,0,0,0,0,0,0,0,0,0,0,0,0,4.5876,4.5775,4.6003,4.6007,4.6009,4.6117,4.6119,4.6121,4.6096,4.6093,4.609,4.6087,4.6206,4.6214,4.6221,4.6334,0,0,4.6245,4.6249,0,0,0,0,0,0,0,0,4.5869,4.5884,4.6005,4.6007,4.6009,4.6089,4.608,4.6192,4.6097,4.6063,4.6089,4.6085,4.6172,4.6183,4.6211,4.6339,4.6345,4.6246,4.6251,4.6254,4.6256,0,0,0,0,0,0,0,4.5862,4.5879,4.6049,4.6007,4.6009,4.6005,4.6016,4.6101,4.6135,4.6066,4.6064,4.6078,4.6173,4.6204,4.6214,4.6346,4.6246,4.6253,4.6257,4.6261,4.6574,4.6577,0,0,0,0,0,0,4.5852,4.5873,4.6045,4.6052,4.593,4.6012,4.6025,4.6066,4.6133,4.6141,4.6081,4.6076,4.6192,4.6205,4.6218,4.6354,4.6254,4.6261,4.6266,4.657,4.6574,4.6578,0,0,0,0,0,0,4.5848,4.5868,4.604,4.5962,4.5984,4.6019,4.6066,4.607,4.6101,4.6145,4.6151,4.6106,4.619,4.6207,4.6305,4.6358,4.6265,4.6272,4.6566,4.6571,4.6576,4.6627,0,0,0,0,0,0,4.5841,4.5866,4.5908,4.5963,4.5988,4.6124,4.607,4.6075,4.6114,4.611,4.617,4.6177,4.6189,4.6294,4.6313,4.6367,4.6278,4.6561,4.6568,4.6575,4.6621,4.6634,4.6645,0,0,0,0,0,4.5833,4.5919,4.591,4.5931,4.6041,4.6127,4.6141,4.6152,4.6119,4.6162,4.619,4.6175,4.6349,4.6304,4.6325,4.6383,4.6558,4.6566,4.6574,4.6616,4.6631,4.6645,0,0,0,0,0,0,4.587,4.5926,4.5917,4.6024,4.6071,4.6123,4.6177,4.6168,4.6227,4.6221,4.6233,4.6247,4.6347,4.6375,4.6323,4.6496,4.6449,4.6462,4.6473,4.6489,4.65,4.6491,4.6285,0,0,0,0,0,4.589,4.5954,4.6,4.609,4.6114,4.6142,4.618,4.6184,4.6234,4.6254,4.6289,4.6339,4.6405,4.6449,4.6512,4.6626,4.6639,4.6676,4.6688,4.6697,4.6708,4.6771,4.6788,4.6605,4.6605,4.6605,0,0,4.5933,4.5972,4.6012,4.6098,4.6135,4.6203,4.6159,4.6232,4.6282,4.6266,4.636,4.6388,4.6445,4.6551,4.6599,4.6577,4.6762,4.6708,4.6715,4.6721,4.6781,4.6798,4.6814,4.6611,4.661,4.6609,0,0,4.6046,4.6081,4.616,4.6198,4.6254,4.6272,4.6292,4.6345,4.6363,4.6457,4.6447,4.6508,4.6622,4.6663,4.6698,4.6828,4.6817,4.6849,4.6911,4.6972,4.6986,4.6999,4.7045,4.7062,4.686,4.686,4.686,0,4.6093,4.6192,4.6202,4.6276,4.6315,4.6302,4.6383,4.642,4.6495,4.6522,4.6496,4.6639,4.6676,4.6792,4.6824,4.6854,4.6876,4.6842,4.6983,4.6996,4.7008,4.7053,4.707,4.6863,4.6863,4.6863,4.6862,0,4.6247,4.6317,4.6374,4.6445,4.649,4.6567,4.659,4.6635,4.6637,4.6658,4.6755,4.68,4.6872,4.69,4.6903,4.7017,4.7002,4.698,4.6933,4.7029,4.7071,4.7088,4.6868,4.6867,4.6866,4.6865,0,0,4.6385,4.6461,4.6482,4.6514,4.6576,4.6631,4.6709,4.6778,4.6817,4.687,4.6935,4.7032,4.7012,4.7053,4.706,4.7114,4.7214,4.7085,4.7087,4.7107,4.7344,4.7359,4.7379,4.7208,4.7211,4.7214,4.7339,0,4.6503,4.6637,4.6649,4.677,4.6835,4.6825,4.6893,4.6939,4.6962,4.7022,4.7047,4.7116,4.7084,4.7109,4.7161,4.7191,4.7262,4.7182,4.727,4.7273,4.7254,4.7401,4.7418,4.7534,4.7355,4.7358,4.736,0,4.6658,4.6714,4.6842,4.6895,4.6923,4.6983,4.7049,4.7106,4.7159,4.7171,4.7217,4.7218,4.7299,4.725,4.7362,4.7308,4.7345,4.7365,4.737,4.7377,4.7321,4.7412,4.7571,4.7588,4.7386,4.7384,4.7382,0,4.6745,4.6853,4.6943,4.6972,4.7037,4.708,4.7109,4.7159,4.72,4.7258,4.7285,4.7352,4.7389,4.7442,4.7461,4.7423,4.7573,4.7525,4.7586,4.7586,4.7617,4.7615,4.7783,4.7642,4.7642,4.7642,4.7641,0,4.6875,4.6954,4.6984,4.7039,4.7127,4.7141,4.7229,4.7256,4.7301,4.7362,4.7359,4.7417,4.7439,4.7501,4.7517,4.7608,4.7625,4.7638,4.7641,4.7638,4.7636,4.7661,4.7654,4.7646,4.7645,4.7645,4.7644,0,4.6987,4.701,4.7108,4.7162,4.7177,4.724,4.7286,4.7341,4.7363,4.7441,4.7461,4.7496,4.7569,4.7594,4.7683,4.7694,4.7799,4.7796,4.7781,4.7781,4.7841,4.7834,4.8031,4.8057,4.79,4.7901,4.7902,0,4.7067,4.7128,4.7188,4.7228,4.7259,4.7325,4.7367,4.7384,4.7428,4.7494,4.7541,4.7613,4.7672,4.779,4.7824,4.7893,4.7891,4.7955,4.7901,4.7896,4.7891,4.7887,4.7893,4.7964,4.7966,4.7967,4.7968,0,4.7209,4.7217,4.7278,4.7343,4.7393,4.7445,4.7496,4.753,4.7554,4.7605,4.7679,4.7724,4.7815,4.7888,4.7958,4.7989,4.7984,4.7985,4.8003,4.8,4.7988,4.7995,4.7808,4.798,4.7979,4.7978,4.7978,4.7977,4.7307,4.736,4.7411,4.7479,4.7518,4.7566,4.7619,4.7649,4.771,4.7785,4.7792,4.7872,4.7925,4.8018,4.8054,4.8118,4.81,4.8125,4.8132,4.8138,4.8142,4.7979,4.8131,4.8131,4.813,4.813,4.813,0,4.7447,4.748,4.7542,4.7612,4.7666,4.7655,4.7711,4.7757,4.7827,4.7877,4.7935,4.8021,4.8091,4.8132,4.8202,4.8246,4.8245,4.8264,4.826,4.8268,4.8154,4.8131,4.8264,4.8263,4.8263,4.8263,4.8263,4.8263,4.7526,4.7615,4.7631,4.774,4.7773,4.785,4.7883,4.7927,4.7967,4.8063,4.8121,4.8146,4.8193,4.8267,4.8332,4.8342,4.8368,4.8389,4.8397,4.829,4.8276,4.8263,4.8241,4.8394,4.8395,4.8505,4.8506,4.8507]},{"header":{"parameterUnit":"m.s-1","parameterCategory":1,"la1":30.2991,"la2":30.254,"lo1":-89.0895,"lo2":-89.0444,"dy":0.0017,"dx":0.0017,"nx":28,"ny":28,"refTime":"2023-08-09T21:00:00:Z","depth":0,"parameterNumber":3,"parameterNumberName":"V-component_of_WINDS"},"data":[0,0,0,0,0,0,0,0,0,0,0,0,0,0,0,0,0,0,0,0,0,0,0,0,0,0,0,0,0,0,0,0,0,0,0,0,0,0,0,0,0,0,0,0,0,0,0,0,0,0,0,0,0,0,0,0,0,0,1.8331,1.8332,0,1.8401,1.8402,1.8403,1.842,1.842,1.8419,1.8419,1.8488,1.8491,1.8493,0,0,0,0,0,0,0,0,0,0,0,0,0,1.8207,1.821,1.8331,1.8332,1.8333,1.8401,1.8402,1.8403,1.842,1.842,1.8419,1.8419,1.8488,1.849,1.8493,0,0,0,0,0,0,0,0,0,0,0,0,0,1.8268,1.821,1.8331,1.835,1.8352,1.8401,1.8402,1.8403,1.842,1.842,1.8419,1.8418,1.8487,1.849,1.8494,1.8528,0,0,1.8504,1.8505,0,0,0,0,0,0,0,0,1.8264,1.8272,1.8346,1.8348,1.8351,1.8401,1.8384,1.8445,1.842,1.8394,1.8419,1.8418,1.846,1.8465,1.848,1.8532,1.8535,1.8504,1.8506,1.8508,1.8509,0,0,0,0,0,0,0,1.826,1.8269,1.8359,1.8347,1.835,1.8353,1.8361,1.8396,1.843,1.8396,1.8398,1.8406,1.8461,1.8477,1.8482,1.8536,1.8504,1.8507,1.8509,1.8511,1.8616,1.8617,0,0,0,0,0,0,1.8253,1.8266,1.8356,1.8361,1.8305,1.8356,1.8365,1.8386,1.843,1.8436,1.8407,1.8407,1.8471,1.8478,1.8484,1.8526,1.8508,1.8511,1.8513,1.8615,1.8616,1.8617,0,0,0,0,0,0,1.825,1.8261,1.8354,1.8314,1.8326,1.8359,1.8382,1.8388,1.8403,1.8437,1.8443,1.8417,1.8471,1.848,1.8517,1.8529,1.8513,1.8516,1.8614,1.8616,1.8617,1.8611,0,0,0,0,0,0,1.8247,1.826,1.8275,1.8314,1.8328,1.8386,1.8383,1.8389,1.8409,1.841,1.8448,1.8454,1.8471,1.8512,1.852,1.8533,1.8518,1.8613,1.8615,1.8616,1.861,1.8612,1.8613,0,0,0,0,0,1.8242,1.827,1.8275,1.8286,1.8347,1.8387,1.8395,1.8415,1.841,1.8424,1.8446,1.8453,1.8526,1.8515,1.8525,1.8539,1.8613,1.8614,1.8616,1.861,1.8612,1.8613,0,0,0,0,0,0,1.8232,1.8276,1.8282,1.8324,1.8351,1.839,1.8408,1.8416,1.8445,1.8445,1.8467,1.8476,1.8511,1.8529,1.8516,1.8574,1.8569,1.8573,1.8561,1.8563,1.8564,1.8559,1.8521,0,0,0,0,0,1.8234,1.8264,1.8301,1.8334,1.8347,1.8375,1.8393,1.8406,1.8435,1.8447,1.8471,1.8499,1.8528,1.8546,1.8575,1.8613,1.862,1.8627,1.8629,1.863,1.8632,1.8651,1.8654,1.8622,1.8622,1.8622,0,0,1.8239,1.8267,1.8285,1.8332,1.8355,1.8384,1.8385,1.8416,1.8437,1.8452,1.8488,1.8506,1.8538,1.8575,1.8593,1.8591,1.8643,1.8632,1.8632,1.8635,1.8653,1.8656,1.8659,1.8624,1.8623,1.8623,0,0,1.8264,1.8289,1.8318,1.8341,1.8375,1.8394,1.84,1.8437,1.845,1.8487,1.8498,1.8522,1.8573,1.8594,1.8611,1.8641,1.8648,1.865,1.8657,1.8675,1.8678,1.868,1.8689,1.8692,1.8653,1.8653,1.8653,0,1.8266,1.8311,1.8332,1.8362,1.8382,1.8396,1.8425,1.8445,1.8487,1.85,1.8498,1.8559,1.8582,1.8623,1.863,1.8644,1.8651,1.8646,1.8676,1.8678,1.8681,1.869,1.8693,1.8652,1.8652,1.8652,1.8652,0,1.8311,1.8342,1.8361,1.8401,1.8423,1.8452,1.8476,1.8495,1.8505,1.8523,1.8559,1.8586,1.862,1.863,1.8641,1.8672,1.867,1.8672,1.8667,1.8683,1.8692,1.8696,1.8652,1.8652,1.8652,1.8652,0,0,1.8331,1.8382,1.8388,1.8405,1.8444,1.8467,1.8496,1.8529,1.8544,1.8572,1.8595,1.8636,1.8637,1.8657,1.867,1.8686,1.8705,1.8685,1.8686,1.8687,1.8739,1.8737,1.8741,1.871,1.871,1.8711,1.8736,0,1.8359,1.8412,1.8431,1.8474,1.8501,1.8514,1.8539,1.8564,1.8581,1.8605,1.8623,1.8651,1.8652,1.8663,1.868,1.8699,1.8716,1.8698,1.873,1.8731,1.8721,1.8745,1.8744,1.8766,1.8739,1.874,1.874,0,1.8399,1.8428,1.8473,1.8506,1.8518,1.854,1.8571,1.8595,1.8623,1.8633,1.8654,1.8665,1.8694,1.8688,1.8726,1.8714,1.8728,1.8739,1.874,1.8744,1.8736,1.8748,1.8774,1.8777,1.8746,1.8746,1.8745,0,1.8407,1.8457,1.849,1.8505,1.8545,1.8559,1.8576,1.8604,1.8621,1.8648,1.8659,1.8688,1.8704,1.8725,1.8743,1.8737,1.8779,1.8775,1.8788,1.8787,1.8796,1.8795,1.8823,1.8806,1.8806,1.8806,1.8806,0,1.8436,1.8463,1.8494,1.8515,1.8544,1.8565,1.8593,1.8611,1.8635,1.8657,1.867,1.8691,1.8714,1.8737,1.8751,1.8779,1.8787,1.8795,1.8798,1.8794,1.8792,1.8803,1.8801,1.8807,1.8807,1.8806,1.8806,0,1.8451,1.8473,1.8509,1.8543,1.8552,1.8573,1.8601,1.8621,1.8637,1.8666,1.8673,1.8699,1.8727,1.8747,1.8783,1.8792,1.8822,1.8826,1.8813,1.8814,1.8825,1.8824,1.8861,1.8866,1.8846,1.8846,1.8846,0,1.8467,1.8488,1.8524,1.8541,1.8558,1.8584,1.8602,1.8622,1.864,1.8672,1.8687,1.8716,1.874,1.8783,1.8804,1.8831,1.8835,1.8846,1.8839,1.8833,1.8833,1.8832,1.8833,1.8847,1.8847,1.8847,1.8847,0,1.8493,1.8503,1.8529,1.8558,1.858,1.8604,1.8628,1.864,1.8664,1.8684,1.8712,1.8731,1.8767,1.8795,1.8823,1.8839,1.8846,1.8849,1.8853,1.8848,1.8839,1.8843,1.8815,1.8848,1.8848,1.8848,1.8848,1.8848,1.8508,1.8527,1.8555,1.8583,1.8603,1.8625,1.8644,1.8663,1.8688,1.8719,1.8729,1.8758,1.8783,1.8822,1.8838,1.886,1.886,1.8866,1.8867,1.8868,1.8868,1.8836,1.8866,1.8866,1.8866,1.8866,1.8866,0,1.8534,1.8552,1.8578,1.8611,1.8633,1.8639,1.8665,1.8682,1.8708,1.8731,1.8755,1.8786,1.8813,1.8835,1.8862,1.8875,1.8879,1.8881,1.888,1.8883,1.8867,1.886,1.8878,1.8878,1.8878,1.8878,1.8878,1.8878,1.855,1.8581,1.8593,1.8634,1.8652,1.8681,1.8695,1.8715,1.8733,1.8768,1.8791,1.8805,1.8828,1.8856,1.888,1.8885,1.8894,1.8896,1.8902,1.8886,1.8885,1.8883,1.8877,1.8898,1.8898,1.8916,1.8916,1.8917]}]]